QFA22 VHHH-YSSY

Flight info

Callsign QFA22
Flight time N/A
Altitude 43000
Route DALOL V652 UNTUL/N0499F360 V652 SABNO/N0496F370 A583 ZAM A461 BONDA/N0491F390 A461 AMN R340 GUTEV DCT 0937S13230E 1338S13520E 2017S14034E 2433S14448E/N0489F410 2646S14719E DCT SGE Y161 OVNOM H652 BOREE
Aircraft B789/H-SDE1E2E3FGHIJ2J3J4J5M1RWXY/LB1D1

Departure

Time 2026-04-30 13:07
Airport Hong Kong International Airport (VHHH)

Arrival

Time N/A
Airport Sydney Kingsford Smith International Airport (YSSY)
Time Latitude Longitude Altitude Speed Heading
2026-04-30 12:30 22.31378 113.92413 38 ft 0 kts 26°
2026-04-30 12:56 22.31363 113.92406 36 ft 2 kts 22°
2026-04-30 12:56 22.31348 113.92399 36 ft 2 kts 18°
2026-04-30 12:56 22.31332 113.92394 35 ft 2 kts 11°
2026-04-30 12:56 22.31316 113.92392 36 ft 2 kts 356°
2026-04-30 12:57 22.31300 113.92395 36 ft 2 kts 326°
2026-04-30 12:57 22.31288 113.92407 34 ft 2 kts 301°
2026-04-30 12:57 22.31284 113.92415 36 ft 0 kts 294°
2026-04-30 12:58 22.31294 113.92392 34 ft 7 kts 294°
2026-04-30 12:58 22.31323 113.92327 37 ft 12 kts 295°
2026-04-30 12:59 22.31358 113.92247 36 ft 12 kts 295°
2026-04-30 12:59 22.31395 113.92168 38 ft 11 kts 298°
2026-04-30 12:59 22.31432 113.92092 38 ft 11 kts 297°
2026-04-30 12:59 22.31435 113.92018 38 ft 9 kts 252°
2026-04-30 13:00 22.31413 113.91953 36 ft 9 kts 250°
2026-04-30 13:00 22.31429 113.91899 38 ft 7 kts 310°
2026-04-30 13:00 22.31455 113.91885 38 ft 7 kts 335°
2026-04-30 13:00 22.31483 113.91875 38 ft 7 kts 341°
2026-04-30 13:01 22.31528 113.91858 38 ft 7 kts 341°
2026-04-30 13:01 22.31550 113.91835 38 ft 6 kts 290°
2026-04-30 13:01 22.31535 113.91743 38 ft 10 kts 251°
2026-04-30 13:01 22.31519 113.91696 38 ft 10 kts 250°
2026-04-30 13:02 22.31497 113.91627 38 ft 10 kts 250°
2026-04-30 13:02 22.31471 113.91548 38 ft 14 kts 251°
2026-04-30 13:02 22.31432 113.91427 38 ft 20 kts 250°
2026-04-30 13:02 22.31355 113.91197 38 ft 28 kts 250°
2026-04-30 13:03 22.31311 113.91066 38 ft 28 kts 250°
2026-04-30 13:03 22.31249 113.90876 38 ft 26 kts 252°
2026-04-30 13:03 22.31192 113.90693 38 ft 25 kts 251°
2026-04-30 13:03 22.31136 113.90517 37 ft 24 kts 251°
2026-04-30 13:04 22.31082 113.90350 37 ft 23 kts 250°
2026-04-30 13:04 22.31026 113.90188 38 ft 22 kts 250°
2026-04-30 13:04 22.30979 113.90032 38 ft 22 kts 251°
2026-04-30 13:04 22.30993 113.89901 37 ft 17 kts 326°
2026-04-30 13:05 22.31105 113.89881 35 ft 15 kts 31°
2026-04-30 13:05 22.31130 113.89923 35 ft 12 kts 71°
2026-04-30 13:06 22.31139 113.89949 35 ft 0 kts 71°
2026-04-30 13:06 22.31145 113.89967 35 ft 16 kts 71°
2026-04-30 13:06 22.31260 113.90322 36 ft 85 kts 70°
2026-04-30 13:06 22.31526 113.91146 38 ft 146 kts 71°
2026-04-30 13:07 22.31916 113.92339 132 ft 187 kts 66°
2026-04-30 13:07 22.32365 113.93645 1140 ft 179 kts 67°
2026-04-30 13:07 22.32787 113.94921 1978 ft 188 kts 72°
2026-04-30 13:07 22.33167 113.96313 2580 ft 205 kts 73°
2026-04-30 13:08 22.33526 113.97859 3280 ft 214 kts 81°
2026-04-30 13:08 22.33762 113.99409 4219 ft 215 kts 79°
2026-04-30 13:08 22.34021 114.01054 4973 ft 218 kts 78°
2026-04-30 13:08 22.34276 114.02669 5768 ft 227 kts 80°
2026-04-30 13:09 22.34494 114.04469 6202 ft 249 kts 92°
2026-04-30 13:09 22.33934 114.06237 6912 ft 258 kts 122°
2026-04-30 13:09 22.32714 114.07664 7715 ft 255 kts 150°
2026-04-30 13:09 22.31133 114.08573 8493 ft 261 kts 165°
2026-04-30 13:10 22.29354 114.08784 9341 ft 255 kts 185°
2026-04-30 13:10 22.27599 114.08723 10300 ft 257 kts 187°
2026-04-30 13:10 22.25798 114.08675 11176 ft 261 kts 185°
2026-04-30 13:10 22.23945 114.08674 11817 ft 277 kts 185°
2026-04-30 13:11 22.21917 114.08659 12115 ft 305 kts 185°
2026-04-30 13:11 22.19701 114.08641 12446 ft 332 kts 182°
2026-04-30 13:11 22.17341 114.09204 12740 ft 367 kts 158°
2026-04-30 13:11 22.15189 114.10849 13125 ft 394 kts 135°
2026-04-30 13:12 22.13614 114.13291 14019 ft 401 kts 121°
2026-04-30 13:12 22.12378 114.16017 14782 ft 408 kts 115°
2026-04-30 13:12 22.11239 114.18839 15578 ft 413 kts 115°
2026-04-30 13:13 22.08585 114.24370 17091 ft 422 kts 124°
2026-04-30 13:13 22.06749 114.26833 17826 ft 421 kts 140°
2026-04-30 13:13 22.02059 114.30675 19158 ft 426 kts 147°
2026-04-30 13:14 21.99650 114.32560 19838 ft 430 kts 147°
2026-04-30 13:14 21.97226 114.34471 20475 ft 434 kts 147°
2026-04-30 13:14 21.92341 114.38329 21737 ft 441 kts 147°
2026-04-30 13:15 21.89846 114.40288 22302 ft 446 kts 147°
2026-04-30 13:15 21.85391 114.45044 23446 ft 462 kts 125°
2026-04-30 13:15 21.83897 114.48132 23935 ft 470 kts 112°
2026-04-30 13:16 21.82934 114.51486 24374 ft 474 kts 108°
2026-04-30 13:16 21.82035 114.54931 24850 ft 477 kts 107°
2026-04-30 13:16 21.81153 114.58404 25313 ft 481 kts 107°
2026-04-30 13:17 21.79357 114.65346 26222 ft 486 kts 107°
2026-04-30 13:17 21.78439 114.68867 26669 ft 489 kts 107°
2026-04-30 13:17 21.76601 114.75976 27544 ft 496 kts 107°
2026-04-30 13:18 21.75669 114.79558 27951 ft 499 kts 107°
2026-04-30 13:18 21.73029 114.86389 28758 ft 498 kts 127°
2026-04-30 13:18 21.70971 114.89398 29104 ft 500 kts 130°
2026-04-30 13:19 21.68856 114.92385 29517 ft 502 kts 130°
2026-04-30 13:19 21.66717 114.95378 29894 ft 505 kts 130°
2026-04-30 13:19 21.64573 114.98400 30250 ft 508 kts 130°
2026-04-30 13:19 21.62451 115.01408 30531 ft 511 kts 130°
2026-04-30 13:20 21.60297 115.04449 30892 ft 512 kts 130°
2026-04-30 13:20 21.58127 115.07497 31146 ft 515 kts 130°
2026-04-30 13:20 21.55946 115.10563 31444 ft 518 kts 130°
2026-04-30 13:20 21.53666 115.13554 31707 ft 516 kts 139°
2026-04-30 13:21 21.50955 115.16070 31979 ft 513 kts 149°
2026-04-30 13:21 21.48018 115.18248 32217 ft 514 kts 149°
2026-04-30 13:21 21.45091 115.20395 32488 ft 516 kts 150°
2026-04-30 13:22 21.39117 115.24756 33033 ft 520 kts 149°
2026-04-30 13:22 21.36132 115.26951 33418 ft 519 kts 149°
2026-04-30 13:22 21.30164 115.31314 34121 ft 518 kts 150°
2026-04-30 13:23 21.27217 115.33467 34430 ft 518 kts 150°
2026-04-30 13:23 21.21237 115.37839 35000 ft 519 kts 150°
2026-04-30 13:24 21.15259 115.42201 35636 ft 518 kts 150°
2026-04-30 13:24 21.09278 115.46560 36023 ft 523 kts 150°
2026-04-30 13:25 20.97375 115.55228 36021 ft 514 kts 150°
2026-04-30 13:26 20.82560 115.65989 36020 ft 516 kts 150°
2026-04-30 13:28 20.67709 115.76754 36019 ft 513 kts 150°
2026-04-30 13:28 20.58869 115.83146 36016 ft 512 kts 150°
2026-04-30 13:29 20.47074 115.91665 36017 ft 513 kts 150°
2026-04-30 13:31 20.31787 116.01150 36043 ft 500 kts 171°
2026-04-30 13:31 20.21595 116.01326 36025 ft 487 kts 191°
2026-04-30 13:32 20.14871 116.00405 36023 ft 487 kts 192°
2026-04-30 13:33 20.01493 115.98564 36026 ft 485 kts 192°
2026-04-30 13:34 19.91464 115.97186 36027 ft 484 kts 191°
2026-04-30 13:35 19.78137 115.95357 36005 ft 486 kts 191°
2026-04-30 13:36 19.64736 115.93523 36012 ft 484 kts 191°
2026-04-30 13:36 19.54711 115.92153 36008 ft 483 kts 191°
2026-04-30 13:37 19.44697 115.90784 36006 ft 485 kts 191°
2026-04-30 13:38 19.34620 115.89411 36007 ft 487 kts 191°
2026-04-30 13:39 19.21213 115.87586 36014 ft 487 kts 191°
2026-04-30 13:40 19.11112 115.86212 36004 ft 488 kts 191°
2026-04-30 13:40 19.04371 115.85301 36000 ft 488 kts 189°
2026-04-30 13:41 18.97548 115.85742 36023 ft 497 kts 169°
2026-04-30 13:41 18.91124 115.88548 36007 ft 505 kts 156°
2026-04-30 13:42 18.84900 115.91949 36011 ft 504 kts 155°
2026-04-30 13:42 18.75559 115.97061 36015 ft 506 kts 156°
2026-04-30 13:43 18.69299 116.00490 36012 ft 507 kts 155°
2026-04-30 13:43 18.63027 116.03914 36011 ft 508 kts 156°
2026-04-30 13:44 18.56748 116.07342 36012 ft 508 kts 155°
2026-04-30 13:44 18.50513 116.10741 36007 ft 506 kts 155°
2026-04-30 13:45 18.41146 116.15845 36001 ft 504 kts 156°
2026-04-30 13:46 18.34910 116.19238 35999 ft 504 kts 156°
2026-04-30 13:46 18.28690 116.22620 35999 ft 504 kts 156°
2026-04-30 13:47 18.22454 116.26008 35992 ft 504 kts 155°
2026-04-30 13:47 18.16270 116.29366 35997 ft 502 kts 155°
2026-04-30 13:48 18.10035 116.32747 36296 ft 501 kts 155°
2026-04-30 13:48 18.06960 116.34415 36510 ft 501 kts 155°
2026-04-30 13:48 18.03852 116.36099 36711 ft 501 kts 155°
2026-04-30 13:48 18.01797 116.37212 36851 ft 500 kts 155°
2026-04-30 13:49 17.97681 116.39441 36990 ft 503 kts 155°
2026-04-30 13:49 17.92486 116.42252 36987 ft 502 kts 155°
2026-04-30 13:50 17.86282 116.45608 36978 ft 499 kts 155°
2026-04-30 13:50 17.77060 116.50590 36981 ft 497 kts 155°
2026-04-30 13:51 17.70920 116.53903 36987 ft 497 kts 155°
2026-04-30 13:51 17.64727 116.57243 36991 ft 499 kts 155°
2026-04-30 13:52 17.58619 116.60535 36992 ft 496 kts 155°
2026-04-30 13:52 17.52474 116.63843 36981 ft 496 kts 155°
2026-04-30 13:53 17.46333 116.67148 36986 ft 493 kts 155°
2026-04-30 13:53 17.40230 116.70428 37291 ft 494 kts 155°
2026-04-30 13:54 17.37169 116.72074 37628 ft 493 kts 155°
2026-04-30 13:54 17.34138 116.73702 37926 ft 493 kts 155°
2026-04-30 13:54 17.31072 116.75347 38228 ft 492 kts 155°
2026-04-30 13:54 17.28054 116.76967 38514 ft 491 kts 155°
2026-04-30 13:55 17.24992 116.78610 38779 ft 491 kts 155°
2026-04-30 13:55 17.21977 116.80227 39001 ft 491 kts 155°
2026-04-30 13:55 17.18927 116.81862 39193 ft 491 kts 156°
2026-04-30 13:55 17.15932 116.83468 39466 ft 489 kts 156°
2026-04-30 13:56 17.12895 116.85095 39692 ft 489 kts 156°
2026-04-30 13:56 17.09865 116.86717 39877 ft 489 kts 156°
2026-04-30 13:56 17.06821 116.88346 39983 ft 491 kts 156°
2026-04-30 13:56 17.03800 116.89962 39982 ft 494 kts 156°
2026-04-30 13:57 16.97669 116.93244 39980 ft 491 kts 156°
2026-04-30 13:57 16.91623 116.96473 39979 ft 489 kts 156°
2026-04-30 13:58 16.82537 117.01326 39981 ft 487 kts 156°
2026-04-30 13:59 16.76548 117.04520 39979 ft 484 kts 156°
2026-04-30 13:59 16.70549 117.07718 39977 ft 484 kts 156°
2026-04-30 14:00 16.64531 117.10924 39981 ft 484 kts 156°
2026-04-30 14:00 16.55534 117.15713 39984 ft 485 kts 156°
2026-04-30 14:01 16.49518 117.18912 39974 ft 485 kts 157°
2026-04-30 14:01 16.43512 117.22104 39974 ft 483 kts 157°
2026-04-30 14:02 16.37560 117.25264 39973 ft 482 kts 157°
2026-04-30 14:02 16.31576 117.28440 39971 ft 482 kts 157°
2026-04-30 14:03 16.25582 117.31618 39971 ft 483 kts 157°
2026-04-30 14:03 16.19593 117.34792 39970 ft 483 kts 157°
2026-04-30 14:04 16.13613 117.37958 39977 ft 481 kts 157°
2026-04-30 14:04 16.07670 117.41103 39971 ft 480 kts 157°
2026-04-30 14:05 16.01740 117.44239 39968 ft 481 kts 157°
2026-04-30 14:05 15.95753 117.47403 39971 ft 483 kts 157°
2026-04-30 14:06 15.86761 117.52151 39979 ft 483 kts 157°
2026-04-30 14:07 15.77779 117.56889 39968 ft 483 kts 156°
2026-04-30 14:08 15.68818 117.61611 39970 ft 483 kts 156°
2026-04-30 14:08 15.59809 117.66354 39970 ft 483 kts 156°
2026-04-30 14:09 15.53843 117.69492 39971 ft 483 kts 156°
2026-04-30 14:10 15.44852 117.74217 39964 ft 483 kts 156°
2026-04-30 14:10 15.38843 117.77373 39965 ft 483 kts 156°
2026-04-30 14:11 15.32859 117.80513 39969 ft 483 kts 156°
2026-04-30 14:11 15.26874 117.83652 39976 ft 483 kts 156°
2026-04-30 14:12 15.20869 117.86799 39974 ft 483 kts 156°
2026-04-30 14:12 15.14865 117.89944 39963 ft 483 kts 156°
2026-04-30 14:13 15.08882 117.93077 39965 ft 483 kts 156°
2026-04-30 14:13 15.02908 117.96202 39966 ft 483 kts 156°
2026-04-30 14:14 14.96902 117.99341 39961 ft 482 kts 156°
2026-04-30 14:14 14.90925 118.02464 39964 ft 482 kts 156°
2026-04-30 14:15 14.84910 118.05605 39964 ft 482 kts 156°
2026-04-30 14:15 14.78944 118.08718 39961 ft 481 kts 156°
2026-04-30 14:16 14.72984 118.11826 39956 ft 481 kts 156°
2026-04-30 14:16 14.67003 118.14943 39956 ft 480 kts 156°
2026-04-30 14:17 14.61061 118.18038 39960 ft 480 kts 156°
2026-04-30 14:17 14.55064 118.21159 39962 ft 482 kts 156°
2026-04-30 14:18 14.49094 118.24265 39964 ft 483 kts 156°
2026-04-30 14:18 14.40086 118.28948 39965 ft 483 kts 156°
2026-04-30 14:19 14.31082 118.33624 39956 ft 482 kts 156°
2026-04-30 14:20 14.25104 118.36726 39963 ft 481 kts 156°
2026-04-30 14:20 14.16178 118.41355 39951 ft 480 kts 156°
2026-04-30 14:21 14.10192 118.44456 39956 ft 480 kts 155°
2026-04-30 14:22 14.01234 118.49094 39953 ft 483 kts 155°
2026-04-30 14:22 13.92225 118.53755 39957 ft 483 kts 155°
2026-04-30 14:23 13.80254 118.59941 39953 ft 481 kts 155°
2026-04-30 14:24 13.71304 118.64563 39948 ft 480 kts 155°
2026-04-30 14:25 13.59346 118.70731 39953 ft 482 kts 155°
2026-04-30 14:26 13.50376 118.75351 39951 ft 482 kts 155°
2026-04-30 14:27 13.41361 118.79991 39954 ft 482 kts 155°
2026-04-30 14:27 13.35354 118.83082 39953 ft 481 kts 155°
2026-04-30 14:28 13.26429 118.87669 39948 ft 480 kts 155°
2026-04-30 14:28 13.20436 118.90748 39948 ft 481 kts 155°
2026-04-30 14:29 13.09458 118.96383 39948 ft 482 kts 155°
2026-04-30 14:31 12.93462 119.04584 39944 ft 482 kts 155°
2026-04-30 14:31 12.84490 119.09178 39945 ft 481 kts 155°
2026-04-30 14:32 12.75484 119.13786 39942 ft 481 kts 155°
2026-04-30 14:33 12.69532 119.16830 39943 ft 481 kts 155°
2026-04-30 14:33 12.60528 119.21431 39942 ft 480 kts 155°
2026-04-30 14:34 12.54554 119.24482 39941 ft 481 kts 155°
2026-04-30 14:34 12.48586 119.27528 39944 ft 481 kts 155°
2026-04-30 14:35 12.39613 119.32106 39941 ft 480 kts 155°
2026-04-30 14:36 12.33612 119.35164 39943 ft 479 kts 155°
2026-04-30 14:36 12.27646 119.38204 39942 ft 479 kts 155°
2026-04-30 14:37 12.21720 119.41221 39942 ft 479 kts 155°
2026-04-30 14:37 12.16711 119.43771 39943 ft 480 kts 155°
2026-04-30 14:38 12.09750 119.47312 39945 ft 481 kts 154°
2026-04-30 14:38 12.04761 119.49850 39951 ft 482 kts 154°
2026-04-30 14:39 11.98759 119.52900 39959 ft 483 kts 154°
2026-04-30 14:39 11.92724 119.55966 39959 ft 482 kts 154°
2026-04-30 14:40 11.83759 119.60517 39957 ft 481 kts 154°
2026-04-30 14:40 11.77753 119.63564 39952 ft 481 kts 154°
2026-04-30 14:41 11.71750 119.66609 39952 ft 482 kts 154°
2026-04-30 14:41 11.65742 119.69659 39954 ft 483 kts 154°
2026-04-30 14:42 11.59711 119.72730 39956 ft 484 kts 154°
2026-04-30 14:42 11.53681 119.75792 39958 ft 484 kts 154°
2026-04-30 14:43 11.47692 119.78836 39953 ft 483 kts 154°
2026-04-30 14:43 11.41653 119.81901 39950 ft 483 kts 154°
2026-04-30 14:44 11.35631 119.84958 39942 ft 483 kts 154°
2026-04-30 14:44 11.29648 119.87993 39940 ft 483 kts 154°
2026-04-30 14:45 11.23625 119.91047 39942 ft 483 kts 154°
2026-04-30 14:45 11.17599 119.94101 39944 ft 483 kts 154°
2026-04-30 14:46 11.11580 119.97150 39940 ft 483 kts 154°
2026-04-30 14:46 11.05578 120.00189 39943 ft 484 kts 154°
2026-04-30 14:47 10.99521 120.03253 39941 ft 485 kts 154°
2026-04-30 14:47 10.93503 120.06290 39941 ft 484 kts 154°
2026-04-30 14:48 10.87450 120.09347 39945 ft 484 kts 154°
2026-04-30 14:48 10.81439 120.12379 39940 ft 483 kts 154°
2026-04-30 14:49 10.75427 120.15411 39939 ft 480 kts 154°
2026-04-30 14:49 10.69487 120.18405 39931 ft 476 kts 154°
2026-04-30 14:50 10.60524 120.22921 39938 ft 480 kts 154°
2026-04-30 14:51 10.51590 120.27418 39935 ft 479 kts 154°
2026-04-30 14:52 10.42573 120.31955 39941 ft 482 kts 153°
2026-04-30 14:52 10.33615 120.36460 39935 ft 474 kts 153°
2026-04-30 14:53 10.24753 120.40913 39925 ft 477 kts 153°
2026-04-30 14:54 10.12891 120.46851 39927 ft 472 kts 153°
2026-04-30 14:55 10.04013 120.51293 39933 ft 475 kts 154°
2026-04-30 14:56 9.92156 120.57219 39933 ft 475 kts 154°
2026-04-30 14:57 9.83255 120.61664 39930 ft 477 kts 154°
2026-04-30 14:58 9.71389 120.67586 39926 ft 478 kts 153°
2026-04-30 14:58 9.62468 120.72034 39927 ft 475 kts 153°
2026-04-30 15:00 9.47583 120.79449 39929 ft 476 kts 153°
2026-04-30 15:01 9.35745 120.85341 39926 ft 474 kts 153°
2026-04-30 15:01 9.26854 120.89764 39922 ft 475 kts 153°
2026-04-30 15:02 9.20911 120.92718 39929 ft 478 kts 153°
2026-04-30 15:03 9.05975 121.00140 39934 ft 477 kts 153°
2026-04-30 15:04 8.91092 121.07528 39918 ft 479 kts 153°
2026-04-30 15:06 8.76135 121.14944 39919 ft 476 kts 153°
2026-04-30 15:07 8.64248 121.20833 39923 ft 474 kts 152°
2026-04-30 15:08 8.52377 121.26714 39924 ft 478 kts 153°
2026-04-30 15:09 8.37560 121.34044 39924 ft 477 kts 153°
2026-04-30 15:10 8.25616 121.39949 39929 ft 475 kts 152°
2026-04-30 15:11 8.07803 121.48748 39928 ft 478 kts 153°
2026-04-30 15:13 7.92986 121.56062 39921 ft 471 kts 153°
2026-04-30 15:14 7.72310 121.66258 39914 ft 477 kts 152°
2026-04-30 15:17 7.45453 121.79483 39907 ft 476 kts 152°
2026-04-30 15:19 7.21388 121.91325 39915 ft 482 kts 152°
2026-04-30 17:39 -19.79541 140.16523 41057 ft 515 kts 147°
2026-04-30 17:42 -20.35737 140.63746 41066 ft 517 kts 142°
2026-04-30 17:43 -20.62535 140.89298 41070 ft 516 kts 142°
2026-04-30 17:44 -20.94557 141.20038 41080 ft 517 kts 142°
2026-04-30 17:47 -21.28450 141.52776 41068 ft 512 kts 142°
2026-04-30 17:48 -21.46921 141.70707 41089 ft 513 kts 142°
2026-04-30 17:50 -21.67995 141.91242 41093 ft 512 kts 142°
2026-04-30 17:52 -21.83839 142.06739 41103 ft 512 kts 142°
2026-04-30 17:54 -22.06644 142.29128 41115 ft 514 kts 142°
2026-04-30 17:56 -22.27676 142.49865 41095 ft 511 kts 142°
2026-04-30 17:58 -22.43454 142.65483 41119 ft 514 kts 141°
2026-04-30 18:00 -22.64415 142.86308 41120 ft 511 kts 141°
2026-04-30 18:01 -22.77528 142.99381 41130 ft 513 kts 141°
2026-04-30 18:02 -22.93279 143.15132 41130 ft 514 kts 141°
2026-04-30 18:04 -23.09067 143.30973 41120 ft 514 kts 141°
2026-04-30 18:06 -23.29957 143.52014 41136 ft 514 kts 141°
2026-04-30 18:08 -23.48299 143.70567 41138 ft 513 kts 141°
2026-04-30 18:10 -23.69190 143.91788 41148 ft 514 kts 141°
2026-04-30 18:11 -23.87477 144.10445 41154 ft 515 kts 141°
2026-04-30 18:13 -24.00524 144.23802 41151 ft 514 kts 141°
2026-04-30 18:14 -24.13538 144.37164 41153 ft 512 kts 141°
2026-04-30 18:15 -24.29082 144.53174 41166 ft 515 kts 141°
2026-04-30 18:16 -24.39522 144.63961 41170 ft 515 kts 141°
2026-04-30 18:17 -24.44728 144.69348 41172 ft 514 kts 141°
2026-04-30 18:18 -24.52524 144.77429 41163 ft 514 kts 141°
2026-04-30 18:18 -24.57612 144.82932 41164 ft 515 kts 139°
2026-04-30 18:19 -24.62713 144.88495 41175 ft 516 kts 139°
2026-04-30 18:19 -24.67761 144.94124 41180 ft 516 kts 139°
2026-04-30 18:20 -24.72798 144.99685 41181 ft 516 kts 139°
2026-04-30 18:20 -24.77854 145.05303 41191 ft 516 kts 139°
2026-04-30 18:21 -24.82910 145.10918 41188 ft 516 kts 139°
2026-04-30 18:21 -24.87960 145.16536 41188 ft 515 kts 139°
2026-04-30 18:22 -24.92989 145.22137 41190 ft 515 kts 139°
2026-04-30 18:22 -25.00550 145.30570 41192 ft 515 kts 139°
2026-04-30 18:23 -25.05552 145.36157 41194 ft 513 kts 139°
2026-04-30 18:23 -25.10559 145.41757 41194 ft 514 kts 139°
2026-04-30 18:24 -25.18110 145.50216 41204 ft 516 kts 139°
2026-04-30 18:25 -25.23171 145.55895 41207 ft 517 kts 139°
2026-04-30 18:25 -25.30702 145.64358 41210 ft 516 kts 139°
2026-04-30 18:26 -25.38261 145.72868 41205 ft 515 kts 139°
2026-04-30 18:27 -25.45758 145.81325 41210 ft 514 kts 139°
2026-04-30 18:28 -25.53260 145.89803 41208 ft 514 kts 139°
2026-04-30 18:28 -25.60787 145.98326 41215 ft 516 kts 139°
2026-04-30 18:29 -25.70817 146.09710 41235 ft 516 kts 139°
2026-04-30 18:30 -25.80801 146.21068 41211 ft 513 kts 139°
2026-04-30 18:31 -25.88267 146.29582 41215 ft 515 kts 139°
2026-04-30 18:32 -25.95730 146.38109 41234 ft 514 kts 138°
2026-04-30 18:33 -26.03195 146.46654 41227 ft 512 kts 138°
2026-04-30 18:33 -26.10635 146.55187 41237 ft 512 kts 138°
2026-04-30 18:34 -26.18054 146.63713 41240 ft 512 kts 138°
2026-04-30 18:35 -26.22995 146.69400 41239 ft 513 kts 138°
2026-04-30 18:35 -26.27970 146.75134 41253 ft 515 kts 138°
2026-04-30 18:36 -26.35421 146.83736 41249 ft 515 kts 138°
2026-04-30 18:37 -26.42881 146.92366 41252 ft 512 kts 138°
2026-04-30 18:37 -26.47793 146.98057 41241 ft 511 kts 138°
2026-04-30 18:38 -26.52740 147.03796 41252 ft 512 kts 138°
2026-04-30 18:38 -26.56850 147.08571 41257 ft 513 kts 138°
2026-04-30 18:39 -26.61809 147.14339 41257 ft 513 kts 138°
2026-04-30 18:39 -26.66727 147.20066 41262 ft 513 kts 138°
2026-04-30 18:40 -26.69196 147.22944 41269 ft 513 kts 138°